RH
72 72 72 73 75 77 77 78 80 77 77 77 77 78 80 83 78 29 29 27 35 76 60 28 22 16 14 13 14 13 14 12 11 12 13 12 16 13 20 20 31 34 36 38 48
71 71 71 72 75 78 79 78 81 77 74 76 77 80 83 83 48 23 32 61 70 78 22 24 19 15 13 12 13 14 13 11 10 10 12 12 13 14 22 17 25 33 39 46 50
70 72 73 74 74 77 79 82 82 77 76 74 78 80 84 70 24 9 76 80 77 67 18 17 14 13 11 11 13 12 13 9 12 11 11 13 13 17 18 16 18 26 35 45 55
74 75 75 73 72 75 83 85 81 75 73 74 72 77 81 46 8 20 68 75 76 35 18 17 15 14 14 14 11 15 12 10 10 11 12 14 14 19 20 22 33 29 38 49 60
77 78 76 74 73 74 80 81 81 77 75 72 72 74 52 25 11 8 53 60 38 26 18 17 18 15 15 11 12 16 10 10 11 11 13 14 18 17 20 20 35 42 49 55 59
80 80 78 77 77 78 82 84 84 84 81 76 72 74 52 32 10 17 26 25 24 25 18 15 15 14 14 13 13 11 12 10 10 12 13 19 14 28 16 20 39 45 44 56 60
77 80 82 81 81 82 83 86 86 84 83 77 75 56 58 29 16 14 15 18 25 20 22 19 15 15 13 15 13 13 16 13 13 13 13 17 17 19 15 35 39 42 46 51 53
78 82 87 87 87 87 87 88 87 85 82 78 76 66 56 18 22 28 21 17 15 23 22 16 18 18 18 14 18 17 16 16 11 11 14 22 17 10 24 34 38 39 49 52 51
80 83 86 88 88 89 89 88 85 79 78 78 66 62 36 31 33 22 26 24 14 23 22 20 21 22 19 19 18 20 17 17 13 12 16 24 17 21 31 31 30 41 46 50 47
76 81 85 87 89 89 89 85 68 74 58 51 47 55 30 24 16 29 37 34 23 17 24 29 25 25 22 19 22 19 20 15 16 15 18 17 20 14 18 29 34 32 40 46 48
76 78 83 87 87 89 68 36 34 41 42 41 38 46 38 23 26 27 43 40 29 18 30 32 29 30 22 21 16 14 16 15 12 13 16 15 14 14 14 23 32 31 36 45 48
75 79 82 84 88 87 54 52 72 62 77 43 40 37 30 30 42 37 40 42 38 25 22 34 39 24 19 18 19 17 18 16 13 16 18 12 15 14 13 17 20 28 32 38 48
77 77 80 86 84 66 56 54 47 53 60 45 37 38 36 32 43 36 32 36 34 36 21 30 25 26 24 22 22 19 19 18 17 19 16 19 20 16 12 19 24 27 26 32 42
80 82 85 86 74 54 50 50 46 56 73 36 44 40 41 32 43 29 32 40 28 30 28 23 17 24 26 26 21 23 16 18 19 22 16 21 22 16 14 14 17 19 30 31 38
79 81 83 80 58 56 51 49 49 65 44 25 31 28 30 30 22 28 31 36 37 27 29 28 22 22 26 22 19 22 16 21 21 22 20 17 24 15 16 17 13 13 19 30 36
77 79 81 55 66 52 50 54 57 77 38 32 30 36 41 34 26 35 31 28 32 50 50 37 22 21 18 18 20 19 22 23 23 21 32 22 24 18 14 17 14 14 16 24 33
76 76 72 53 57 63 59 54 69 49 21 33 34 32 31 29 35 34 45 40 34 46 51 42 27 23 21 20 21 22 24 34 36 39 34 21 26 22 15 14 15 17 15 21 30
76 80 63 52 52 64 72 74 69 25 29 28 38 31 27 30 32 36 43 43 32 29 28 37 45 26 26 23 26 26 24 31 40 40 31 26 30 20 14 14 16 16 16 19 28
77 58 62 53 61 77 95 83 34 29 34 48 35 33 33 32 34 33 37 33 29 25 31 36 38 24 24 24 22 28 32 22 34 42 35 27 24 20 15 14 14 15 18 22 25
73 69 54 50 66 90 99 70 41 33 47 46 41 39 44 40 40 52 45 36 35 22 22 28 37 25 24 24 22 26 22 35 33 45 47 29 29 25 19 16 14 17 18 22 28
80 76 46 55 73 93 96 62 46 30 33 48 52 50 45 43 36 64 87 56 41 31 24 30 33 35 25 32 26 28 30 30 26 29 40 41 30 24 20 17 18 18 18 20 25
74 88 69 77 93 83 89 53 62 38 31 36 45 49 50 45 42 45 73 50 41 42 37 32 39 38 31 23 19 20 26 27 37 39 36 40 30 22 23 19 21 18 17 19 17
82 64 71 83 89 80 74 58 56 47 38 36 42 46 42 47 45 35 75 51 38 45 47 47 37 38 34 29 26 27 24 24 26 29 38 56 31 19 24 19 17 19 16 16 18
91 98 74 89 74 70 64 57 62 46 42 36 42 48 46 47 39 42 38 52 54 48 69 57 48 38 33 30 35 34 27 24 30 42 36 31 26 22 20 19 17 16 16 17 19
100 97 54 93 81 73 68 57 75 56 46 39 43 43 45 54 46 45 38 34 43 52 44 48 84 62 51 50 46 46 43 32 28 27 35 28 26 22 20 19 19 19 19 18 18
100 97 80 61 93 85 77 74 63 44 46 47 51 43 48 53 46 48 44 41 43 47 45 43 76 57 50 43 43 46 37 36 32 30 30 28 29 20 20 20 21 22 20 17 18
98 86 94 59 62 68 79 62 72 62 46 39 46 58 65 56 50 44 44 46 47 52 54 52 65 61 56 42 38 50 43 37 35 31 32 37 31 26 26 26 26 24 25 23 20
Wind_Speed
12 13 14 14 14 14 14 15 15 17 16 17 18 19 21 22 24 13 14 3 5 10 7 12 11 11 12 10 8 5 9 11 12 13 10 3 6 3 5 12 7 6 7 3 2
12 12 13 14 13 12 13 14 14 17 18 18 18 18 20 23 20 17 7 9 7 14 14 19 17 14 13 14 8 13 13 15 5 10 7 7 8 9 6 10 11 10 9 5 2
12 13 14 14 14 14 13 13 15 18 19 18 19 18 17 22 13 1 7 10 11 15 14 17 12 16 17 11 14 14 18 12 7 11 7 11 11 2 10 13 10 11 5 6 2
12 13 14 15 16 16 15 14 16 19 19 20 18 20 21 7 9 6 10 5 8 15 10 14 15 18 17 15 16 14 18 15 11 7 10 11 10 11 12 15 6 4 2 5 3
11 12 13 14 15 16 15 16 17 19 20 20 18 16 13 7 13 9 10 4 7 12 14 16 17 18 17 13 11 19 18 13 14 13 13 12 15 15 15 10 7 4 5 5 3
11 12 13 15 16 17 17 17 17 19 20 22 17 11 9 15 6 5 9 8 6 13 12 14 11 16 10 13 16 6 18 17 14 15 14 13 18 3 12 5 10 9 7 5 4
14 13 14 16 17 18 18 19 20 21 22 22 17 9 12 19 5 9 12 10 8 13 16 14 12 10 8 11 16 12 15 15 16 16 17 9 18 17 12 8 10 11 8 6 5
16 14 13 13 15 16 18 20 22 23 23 18 9 7 10 9 10 11 8 16 16 11 11 9 12 13 9 3 6 14 14 15 12 11 7 10 16 3 5 9 11 10 9 9 7
15 13 13 13 14 16 18 22 24 19 12 2 8 8 11 3 6 8 2 12 10 15 11 6 9 14 12 13 13 13 16 16 12 8 4 13 11 8 5 9 10 10 11 10 8
14 14 13 14 14 16 18 23 17 6 3 5 2 7 12 11 4 1 4 9 8 12 12 14 11 13 15 16 18 17 16 15 14 7 10 13 15 14 7 9 11 11 11 12 11
13 15 14 14 15 15 16 7 3 6 5 10 11 14 19 8 7 5 6 6 9 16 19 20 16 23 24 23 19 13 14 15 7 4 5 14 15 13 6 8 11 12 12 13 12
13 13 13 13 14 14 7 5 5 5 13 20 25 25 25 14 9 6 8 9 12 16 21 14 23 20 17 19 19 17 16 14 8 5 11 15 15 14 11 8 9 11 13 13 13
12 13 12 12 13 6 6 4 7 10 9 14 10 12 11 16 16 9 11 9 12 15 20 24 7 20 15 16 19 22 19 16 13 3 12 11 17 18 11 6 6 9 10 13 15
11 11 9 13 7 6 3 3 9 6 7 5 3 3 4 8 9 23 8 11 12 15 17 17 24 8 20 24 19 20 19 17 13 8 10 3 13 14 8 16 10 9 12 13 16
10 10 10 5 8 4 6 9 8 4 8 5 3 2 6 9 5 8 22 11 23 19 7 12 12 22 19 21 19 19 9 12 16 11 12 15 10 13 5 12 11 10 12 14 16
11 11 10 7 4 4 5 8 5 5 7 3 2 2 4 12 6 4 8 19 17 18 19 26 4 14 22 14 16 7 7 8 9 10 13 13 11 9 2 4 2 4 2 10 16
12 11 9 4 3 2 5 4 6 7 4 1 3 9 15 15 8 9 11 22 16 20 20 25 21 11 14 21 15 15 13 7 9 9 11 7 10 15 5 7 10 7 6 7 15
11 10 6 7 3 5 3 3 10 2 9 10 8 16 6 10 6 13 12 15 23 18 9 16 15 20 13 16 14 24 21 8 11 10 8 10 8 5 4 2 4 9 7 5 13
10 7 7 7 8 5 3 9 4 9 3 7 13 7 3 8 7 6 10 7 16 23 17 18 19 13 13 12 15 16 18 14 6 2 5 9 8 9 11 10 5 7 4 4 12
6 6 9 9 10 7 5 9 11 8 4 5 6 3 5 8 7 5 4 6 5 19 16 5 11 16 21 12 16 11 12 12 10 13 10 8 10 6 8 5 3 3 9 1 8
5 4 2 9 9 5 6 11 11 16 8 5 3 6 5 6 8 4 1 6 16 12 15 10 8 6 13 17 19 13 11 10 8 13 11 7 5 6 11 5 0 7 9 3 5
4 5 4 10 7 5 9 12 5 14 14 15 7 8 8 8 6 0 1 4 14 20 10 14 5 6 16 5 16 17 20 18 9 11 8 10 9 7 5 5 4 8 7 4 3
4 6 5 7 8 12 7 14 12 12 13 9 11 6 4 5 4 3 4 9 12 15 12 4 8 10 9 8 5 11 12 12 17 13 12 9 3 1 3 9 6 7 11 6 2
3 4 7 7 9 11 16 16 16 13 17 13 7 6 8 10 7 7 6 2 10 8 19 8 5 11 9 4 1 6 9 13 12 11 12 15 15 13 9 12 14 11 10 8 7
4 5 6 6 10 15 12 7 15 15 14 12 11 16 15 11 12 13 14 12 5 3 4 9 1 1 1 0 1 0 3 9 13 13 13 10 11 11 10 9 10 14 12 10 11
4 4 4 9 7 15 16 14 20 20 13 13 13 9 12 19 17 16 7 7 3 6 3 6 4 4 1 1 5 7 7 6 10 9 7 8 10 8 10 13 12 14 15 16 13
4 5 4 10 13 13 10 15 14 14 13 14 10 6 12 12 7 10 10 10 12 7 5 4 2 4 2 2 4 8 13 5 5 4 4 5 5 7 8 10 13 14 10 16 15
Wind_Direction
349 345 346 344 344 341 338 338 334 330 323 322 324 324 323 317 312 288 256 288 195 151 184 167 192 191 204 206 222 243 242 245 236 225 225 168 276 294 305 268 211 219 268 27 332
348 344 343 341 339 336 335 335 331 330 330 323 321 323 323 319 300 279 270 274 228 177 182 187 188 186 203 212 203 221 233 249 250 226 243 269 292 324 249 246 247 240 235 226 235
342 336 333 331 331 330 332 326 324 326 325 326 321 321 323 315 291 194 12 298 208 193 205 206 210 197 221 213 208 217 246 242 229 229 282 283 290 247 273 279 274 274 233 190 181
332 330 329 331 331 329 326 323 320 319 318 316 322 322 318 296 286 42 348 42 179 209 207 194 194 204 221 214 216 243 237 250 246 239 250 258 300 272 267 281 299 269 190 167 160
314 312 323 326 326 323 318 315 312 308 306 304 313 321 312 261 262 348 337 37 166 190 200 196 200 208 225 224 215 234 248 239 247 252 249 273 264 279 274 259 244 190 182 169 179
326 324 324 323 322 319 316 310 306 299 299 300 301 305 274 262 348 303 333 319 238 230 213 216 215 215 271 233 224 238 237 250 248 249 250 255 275 272 258 234 219 205 192 178 191
318 320 318 321 320 315 313 308 301 298 297 296 290 254 255 251 277 287 299 292 290 249 240 227 242 219 230 244 233 256 251 239 236 245 250 265 261 238 272 191 219 214 195 197 199
313 316 318 320 316 314 311 302 298 299 300 292 245 208 254 239 245 266 255 265 251 247 261 263 234 241 240 276 218 232 240 250 241 230 224 220 262 244 154 198 218 214 201 203 202
327 322 320 321 318 315 312 304 300 302 305 188 167 219 265 129 231 242 249 255 254 220 231 256 215 217 206 229 230 216 246 220 244 207 203 218 275 109 179 216 230 214 213 206 201
317 321 326 323 320 319 313 298 299 259 178 191 266 219 238 253 219 9 64 237 244 210 209 216 208 208 215 209 226 230 230 247 247 152 219 230 251 270 186 229 228 220 211 211 202
315 318 323 323 325 322 321 309 315 190 349 287 279 267 286 294 265 159 83 259 231 200 202 202 210 211 211 218 235 272 249 253 229 153 257 250 261 271 270 211 220 220 219 208 209
313 320 324 323 322 320 316 45 72 309 295 267 255 256 257 269 300 181 114 251 214 213 210 190 227 222 227 222 232 234 240 235 239 272 231 256 253 269 270 248 233 216 218 212 194
310 317 320 316 309 283 10 62 6 333 274 297 263 257 258 214 229 221 145 267 256 230 226 225 234 217 215 218 220 227 235 243 257 183 244 273 263 255 236 233 228 221 223 205 199
302 311 316 315 262 346 348 353 331 317 283 267 254 246 195 214 228 229 200 224 258 250 230 239 235 206 210 228 215 230 227 251 254 253 257 199 276 268 251 270 222 216 204 202 196
302 306 311 308 307 268 334 319 324 229 298 64 115 66 141 219 334 166 194 206 244 253 247 224 227 225 230 230 214 238 234 239 239 246 267 248 256 267 222 259 242 227 195 203 195
299 301 305 251 240 279 321 306 263 229 253 335 92 353 208 223 261 114 182 197 225 251 282 282 238 234 228 234 214 256 207 220 226 238 240 238 249 278 233 205 220 239 206 199 189
296 298 290 279 281 68 316 276 211 239 2 318 321 323 304 292 223 209 169 191 212 201 218 252 249 236 232 227 198 208 201 205 208 206 237 207 234 246 239 268 288 276 289 184 190
294 296 254 255 254 230 287 220 235 202 248 326 319 312 288 326 236 200 185 200 220 224 211 223 243 214 200 220 205 202 195 203 205 212 224 163 236 224 265 318 265 285 292 229 191
295 262 247 231 220 182 178 207 239 229 305 312 315 317 340 3 311 156 209 230 211 219 229 196 220 248 195 197 223 195 222 241 279 4 257 200 232 263 245 256 248 325 302 207 189
273 266 254 217 192 181 221 237 233 238 321 305 270 324 320 348 331 126 291 16 308 224 239 237 231 208 213 226 210 204 196 204 220 228 226 213 245 242 193 294 358 31 19 71 176
255 251 213 180 171 197 221 224 235 247 246 292 287 284 297 322 326 128 248 14 351 337 238 267 248 167 183 204 208 201 204 230 246 229 242 238 223 160 250 286 253 352 357 24 180
242 232 109 153 188 194 230 211 254 237 238 238 266 265 272 309 300 102 65 2 353 330 219 210 280 216 202 153 232 226 216 213 220 191 238 258 252 136 265 297 307 318 339 354 208
226 230 166 212 218 217 205 239 225 253 241 225 227 226 246 277 287 333 127 325 350 342 350 334 227 216 231 210 180 212 213 236 232 252 234 217 198 172 329 297 261 275 309 300 258
217 227 203 205 236 265 220 227 227 230 246 235 248 236 249 263 264 287 311 206 319 333 311 299 223 245 230 244 135 204 219 216 209 222 234 246 256 264 267 281 297 300 305 301 307
210 220 229 196 219 228 250 259 226 222 220 225 238 243 248 259 256 266 281 301 295 18 275 326 5 342 206 194 354 227 254 247 238 242 247 258 237 252 270 281 297 312 301 307 294
209 211 240 258 170 212 213 230 244 235 213 213 237 241 248 242 245 275 301 291 295 320 353 300 344 322 264 12 262 262 265 238 231 228 242 251 264 278 293 302 292 292 308 295 308
182 234 280 238 227 235 221 231 218 241 223 241 222 220 249 255 272 281 283 269 270 290 309 315 235 306 203 330 304 237 225 199 137 125 196 209 27 347 329 321 322 314 324 307 308